HULIANWANG DIGUI 16D

Last updated on Sat Dec 13 2025 00:02:09 GMT+0000 (Coordinated Universal Time)

1 67062U 25295D 25346.21278330 -.00000151 00000+0 37539-5 0 9999 2 67062 50.0052 14.4731 0012497 251.2247 108.7311 14.25916921 46
UTC large
Height (km)
Speed (km/s)
/
Latitude / Longitude
Inclination (degrees)
Orbital Period (minutes)
Azimuth
Elevation
Range (km)
Doppler Factor

Next 0 passes for location: London (51.5072 / 0.1276)

Sorry there are no passes over London.